METEOR 2-5 DEB, 45507

Orbit data source: Space-Track

METEOR 2-5 DEB, 45507 is space debris in LEO originally from a launch on Wed, 31 Oct 1979 UTC launched from the Plesetsk Missile And Space Complex (PKMTR). Debris objects in space refer to the collection of defunct objects orbiting the Earth. Examples of debris include non-operational satellites, rocket bodies, and fragments generated from explosions, collisions, or faulty payload assembly.

Loading next visibility...
Identifier
45507, 1979-095CP
Orbit
LEO
Country
Flag of CISCIS
Related business
Manufacturer
Unknown
Mission
Spacecraft
Bus & Motor
Unknown
Mass
Unknown
Launch date (UTC)
1979-10-31 (47 years ago)
Launch vehicle
Unknown
Launch site
Plesetsk Missile And Space Complex (PKMTR)
Object type
Payload
Rocket body
Debris
Shape & HBR
Unknown shape, 0.1 m
Radar Cross Section
Small (<0.1 m²)

Expand to show TLE details & history
Last TLE update: 3 days ago

TLE from 3 days ago
0 METEOR 2-5 DEB
1 45507U 79095CP  26170.61685658  .00004394  00000-0  14507-2 0  9991
2 45507  81.1986 136.0039 0011126   9.2542 350.8847 14.37907621597502
Epoch: 2026-06-19T14:48Z
TLE epoch observation values (Epoch: 2026-06-19T14:48:16.408Z)
Latitude
-0.00001°
Longitude
6.09226°
Altitude
760.507 km
Speed
7.478 km/s
True Right ascension
09h 04m 00s
True Declination
0° 00' 00"
Sunlit
Object was in daylight at epoch
Visualization orbit readout
Latitude
Unknown
Longitude
Unknown
Altitude
Unknown
Speed
Unknown
Apparent Right ascension
Unknown
Apparent Declination
Unknown
Sunlit
N/A
Visualization observer readout
Local Sidereal Time
21:40:19
Azimuth
Unknown
Elevation
Unknown
Doppler factor
Unknown
Orbital elements
Apogee altitude
770.504 km
Perigee altitude
754.614 km
Semi-major axis
7,140.696 km
Eccentricity
0.00111
Inclination
81.1986°
RAAN
136.0039°
Arg. of periapsis
9.2542°
True anomaly
350.86447°
Mean anomaly
350.8847°
Eccentric anomaly
350.87459°
Mean motion
3.59693 °/min
Orbital period
100.09 mins
BSTAR
0.0014507
Loading maneuver chart data...
Computing Atmospheric mass density...

Documentation

Showing up to 5 results
|